Other Surface Observations
Issued by NWS

Home | Current Version | Previous Version | Text Only | Print | Product List | Glossary On
Versions: 1 2 3 4 5 6 7 8 9 10 11 12 13 14 15 16 17 18 19 20 21 22 23 24 25 26 27 28 29 30 31 32 33 34 35 36 37 38 39 40 41 42 43 44 45 46 47 48 49 50
000
SXUS52 KTAE 312319
OSOTAE
OSOTAE
North Florida/South Alabama/Southwest Georgia Weather Roundup
National Weather Service Tallahassee Florida
700 PM EDT FRI JUL 31 2015

Note: "fair" indicates few or no clouds below 12,000 feet with no
significant weather and/or obstructions to visibility.

!FLZ017-115-028-034-025-010000
...North Florida...

CITY           SKY/WX    TMP DP  RH WIND       PRES   REMARKS
TALLAHASSEE    PTSUNNY   91  74  57 SW7       29.87R HX 100
APALACHICOLA   PTSUNNY   86  76  71 SW5       29.87R HX  96
PERRY          MOSUNNY   86  75  68 S9        29.89F HX  94
CROSS CITY       N/A     81  75  82 SW6       29.89F
JACKSONVILLE   TSTM      79  76  90 NE6       29.88R
$$

!FLZ112-006-005-002-011-010000
...Florida Panhandle...

CITY           SKY/WX    TMP DP  RH WIND       PRES   REMARKS
MARIANNA       MOSUNNY   85  78  80 W9        29.85S HX  96
BONIFAY        FAIR      78  75  90 CALM      29.87F
PANAMA CITY NW FAIR      81  77  88 N5        29.85F
TYNDALL AFB    PTSUNNY   85  78  80 SW5       29.85F HX  96
TYND DRONE APT FAIR      85  79  82 S6        29.85S HX  98
DE FUNIAK SPR  LGT RAIN  74  74  99 CALM      29.87F
EGLIN AFB      PTSUNNY   82  75  80 N5        29.85F
DESTIN         CLOUDY    83  76  79 NE5       29.85F HX  91
HURLBURT       CLOUDY    82  75  79 N6        29.84F
CRESTVIEW      LGT RAIN  77  77 100 S3        29.87F FOG
PENSACOLA      CLOUDY    78  76  93 NW8       29.87F
$$

!ALZ063-066-010000
...South Alabama...

CITY           SKY/WX    TMP DP  RH WIND       PRES   REMARKS
DOTHAN         PTSUNNY   86  75  69 E3        29.91S THUNDER HX  95
OZARK CAIRNS   PTSUNNY   87  78  74 VRB1      29.86S HX 100
FT RUCKER HELI PTSUNNY   90  76  63 CALM      29.85S HX 101
RUCKER HELI 3  FAIR      89  74  61 NW3       29.87F HX  98
RUCKER HELI 2  FAIR      89  79  72 NW3       29.86S HX 104
FLORALA APT    CLOUDY    81  72  74 CALM      29.87F
ANDALUSIA      PTSUNNY   92  75  57 CALM      29.86F HX 103
TROY           MOSUNNY   94  71  47 N8        29.89R HX 101
EUFALA         CLOUDY    79  72  79 VRB3G25   29.88R THUNDER
MOBILE         MOSUNNY   90  75  61 N9        29.87S HX 100
$$

!GAZ120>161-010000
...Southwest and South Central Georgia...

CITY           SKY/WX    TMP DP  RH WIND       PRES   REMARKS
THOMASVILLE    FAIR      90  73  58 S5        29.88S HX  98
BAINBRIDGE     MOSUNNY   88  79  74 SW3       29.87R HX 102
MOODY AFB      PTSUNNY   91  76  62 SW7       29.87R HX 102
VALDOSTA       MOSUNNY   88  78  72 VRB3      29.87S HX 101
MOULTRIE       PTSUNNY   90  73  58 CALM      29.87F HX  98
BLAKELY        MOSUNNY   91  79  66 S7        29.86S HX 107
ALBANY         CLOUDY    88  76  67 CALM      29.88R THUNDER HX  99
TIFTON         TSTM      79  73  82 W7        29.90R
FITZGERALD     FAIR      87  75  68 SE7       29.91S HX  96
CORDELE        TSTM      75  74  94 NW8       29.91F
AMERICUS       TSTM      73  73 100 NE8       29.97R
HOMERVILLE     PTSUNNY   82  79  89 CALM      29.90R HX  93
$$

!GMZ750-755-770-775-010000
...Coastal and Buoy Obs...

STATION/POSITION TIME  TEMP    WIND        PRES    VSBY  WAVE
                       AIR SEA DIR/SP/G                  HT/PER
                 (UTC) (F)     (DEG/KT/KT) (MB)    (MI)  (FT/S)
KEATON BEACH     2300   83     200/  8/  9 1012.1F
CEDAR KEY        2300   83     230/ 10/ 14 1012.8F
C TOWER          2300   83     200/  5/  5 1011.6R
APALACHICOLA BUO 2250   83 85  180/ 17/ 19 1012.3R         3/ 5
PANAMA CITY BUOY 2250   85 87  240/ 10/ 12 1011.1F         3/ 6
MOBILE BUOY      2250   86 91  350/  6/  8 1011.1F         1/ 4
ORANGE BCH AL BU 2250   84 86  320/  6/  8 1010.4S         1/ 4
$$



USA.gov is the U.S. government's official web portal to all federal, state and local government web resources and services.